Tracking 20041 objects as of 22-Nov-2019
Live streaming from Space Station
objects crossing your sky now

SL-12 DEB

Track SL-12 DEB now!
10-day predictions


NORAD ID: 42973
Int'l Code: 2010-041N
Perigee: 682.3 km
Apogee: 18,866.2 km
Inclination: 64.9 °
Period: 340.3 minutes
Semi major axis: 16145 km
RCS: Unknown
Launch date: September 2, 2010
Source: Commonwealth of Independent States (former USSR) (CIS)
Launch site: TYURATAM MISSILE AND SPACE COMPLEX (TTMTR)

Note: This is SATELLITE DEBRIS
aabbcc
Your satellite tracking list
Your tracking list is empty




NASA's NSSDC Master Catalog

Two Line Element Set (TLE):
1 42973U 10041N   18264.89538724 -.00001056 +00000-0 -84417-2 0  9998
2 42973 064.8790 044.3671 5631358 069.7284 339.9157 04.23189709016202
Source of the keplerian elements: AFSPC